Погода в Смедерево

Сербия     44°39′36″N   20°56′07″E
темп.,
°C
ветер,
м/с
пор.,
м/с
влажн.,
%
обл.,
%
осадки,
мм/ч
давл.,
гПа
погр.,
м
23 апреля, пт
пт2323:00+12юв1164100 0.1 101815
02:00+11ююв0173100 0.1 101829
05:00+9ссз61281100 0.0 1020504
08:00+10сз4678100 0.2 1023482
11:00+14сз67433 0.0 10241641
14:00+15сз68385 0.0 10231981
17:00+15ссз57415 0.0 10222108
20:00+10сз33605 0.0 102431
24 апреля, сб
сб2423:00+8сз33655 0.0 102545
02:00+6ссз22705 0.0 102523
05:00+5сз22760 0.0 102515
08:00+9зсз12652 0.0 1026272
11:00+13сз34520 0.0 10251326
14:00+16ссз334310 0.0 10221867
17:00+16с22405 0.0 10211818
20:00+10ссв33584 0.0 102128
25 апреля, вс
вс2523:00+8св11635 0.0 102210
02:00+7юв006836 0.0 102110
05:00+6ссз00735 0.0 102110
08:00+10ссв11638 0.0 1021219
11:00+15с12475 0.0 10201164
14:00+17с333999 0.0 10181714
17:00+17с45425 0.0 10181824
20:00+12ссв22604 0.0 101913
26 апреля, пн
пн2623:00+9ссв22815 0.0 102025
02:00+8ссз238828 0.0 102033
05:00+8ссз2373100 0.0 1020106
08:00+10ссз016191 0.0 1020283
11:00+15св114279 0.0 1019901
14:00+17всв1139100 0.0 10161532
17:00+17св3244100 0.0 10141215
20:00+12ссв5963100 0.0 1014279
27 апреля, вт
вт2723:00+11ссв2577100 0.3 1014188
02:00+9с5976100 0.7 1014305
05:00+8ссв2581100 0.6 1014241
08:00+8сз1186100 0.7 1014108
11:00+9сз0084100 0.1 1014192
14:00+10вюв3485100 0.4 1012342
17:00+10св2392100 1.3 1011185
20:00+11вюв51193100 3.4 1010439